World > North America > United States > Alabama > Lowndesboro

Lowndesboro, AL Hourly Weather Conditions

Feedback E-mail the Weather

Quick WX

Lowndesboro, AL Weather Maps

°F °C°F °C
Lowndesboro Weather Map
UTC Time: 11/27/2022, 19:33
Your Time:

Lowndesboro, AL Regional Weather

Expires:202211272000;;904352
ASUS44 KBMX 271910
RWRAL 
             
ALABAMA REGIONAL WEATHER ROUNDUP
NATIONAL WEATHER SERVICE BIRMINGHAM AL
100 PM CST SUN NOV 27 2022

NOTE: "FAIR" INDICATES FEW OR NO CLOUDS BELOW 12,000 FEET
WITH NO SIGNIFICANT WEATHER AND/OR OBSTRUCTIONS TO VISIBILITY.

THE REMARK "TC" DENOTES TEMPERATURE IN DEGREES CELSIUS.


ALZ015-024>026-033>036-041>044-272000-
CENTRAL ALABAMA
  
CITY           SKY/WX    TMP DP  RH WIND       PRES   REMARKS
BIRMINGHAM     MOSUNNY   62  43  49 SW21G29   29.84F                  
MONTGOMERY     SUNNY     68  45  43 W18G28    29.87F                  
SHELBY CO ARPT SUNNY     63  44  50 SW12G21   29.84F                  
MAXWELL AFB    SUNNY     67  42  41 W9G17     29.85F                  
GREENVILLE     FAIR      65  44  46 W13G18    29.87F                  
SELMA          FAIR      68  45  42 SW18      29.86F                  
PRATTVILLE     FAIR      66  45  45 SW7       29.87F                  
BESSEMER       FAIR      64  45  49 SW15G24   29.84F                  
TALLADEGA      FAIR      64  44  48 SW14G20   29.83F                  
PELL CITY      SUNNY     66  45  45 W14       29.82F                  
SYLACAUGA      CLOUDY    65  46  50 SW16G23   29.85F                  
JASPER         PTSUNNY   63  45  51 W12G20    29.80F                  
$$
 

SKY/WX - Weather  TMP - Temperature  DP - Dew Point  RH - Humidity
WIND - Wind Direction/Speed PRES - Barometric Pressure VSB - Visibility
WCI - Wind Chill Index E13G22 Wind - East Wind 13 mph/Gusts of 22 mph

Trending Headlines

Trending Entertainment Headlines

Lowndesboro Radar Loop

Use the map search tool if you want to place a location marker on the radar map...

Lowndesboro Quick Facts

National Two Day Weather Forecast


E-mail the Lowndesboro Weather Forecast

Voice your opinion or tell us about page issues...